TimeCST,TemperatureF,Dew PointF,Humidity,Sea Level PressureIn,VisibilityMPH,Wind Direction,Wind SpeedMPH,Gust SpeedMPH,PrecipitationIn,Events,Conditions,WindDirDegrees,DateUTC
12:52 AM,34.0,23.0,64,29.91,10.0,SSW,11.5,-,N/A,,Clear,200,2013-02-05 06:52:00
1:52 AM,36.0,23.0,59,29.90,10.0,SSW,12.7,-,N/A,,Clear,200,2013-02-05 07:52:00
2:52 AM,33.1,21.9,64,29.91,10.0,SSW,8.1,-,N/A,,Clear,200,2013-02-05 08:52:00
3:52 AM,33.1,21.9,64,29.91,10.0,SW,6.9,-,N/A,,Clear,220,2013-02-05 09:52:00
4:52 AM,28.0,19.9,72,29.95,10.0,NW,6.9,-,N/A,,Clear,320,2013-02-05 10:52:00
5:52 AM,27.0,19.9,75,29.98,10.0,WNW,8.1,-,N/A,,Clear,300,2013-02-05 11:52:00
6:52 AM,26.1,19.0,75,29.99,9.0,SSW,9.2,-,N/A,,Clear,200,2013-02-05 12:52:00
7:52 AM,32.0,21.0,64,30.01,10.0,West,9.2,-,N/A,,Clear,270,2013-02-05 13:52:00
8:52 AM,44.1,21.9,42,30.03,10.0,NW,6.9,-,N/A,,Clear,310,2013-02-05 14:52:00
9:52 AM,54.0,21.9,29,30.03,10.0,NW,5.8,-,N/A,,Clear,310,2013-02-05 15:52:00
10:52 AM,57.9,21.9,25,30.04,10.0,North,15.0,-,N/A,,Clear,360,2013-02-05 16:52:00
11:52 AM,59.0,19.9,22,30.04,10.0,North,11.5,-,N/A,,Clear,350,2013-02-05 17:52:00
12:52 PM,61.0,21.0,21,30.02,10.0,NNW,11.5,18.4,N/A,,Clear,340,2013-02-05 18:52:00
1:52 PM,62.1,21.9,21,29.99,10.0,North,9.2,-,N/A,,Clear,360,2013-02-05 19:52:00
2:52 PM,62.1,21.9,21,29.99,10.0,NNE,9.2,-,N/A,,Clear,20,2013-02-05 20:52:00
3:52 PM,62.1,21.0,21,29.98,10.0,NNE,6.9,-,N/A,,Clear,30,2013-02-05 21:52:00
4:52 PM,60.1,23.0,24,30.00,10.0,East,6.9,-,N/A,,Clear,80,2013-02-05 22:52:00
5:52 PM,51.1,26.1,38,30.00,10.0,ESE,5.8,-,N/A,,Clear,110,2013-02-05 23:52:00
6:52 PM,45.0,24.1,44,30.02,10.0,East,5.8,-,N/A,,Clear,100,2013-02-06 00:52:00
7:52 PM,43.0,23.0,45,30.02,10.0,SE,6.9,-,N/A,,Clear,130,2013-02-06 01:52:00
8:52 PM,39.0,23.0,53,30.01,10.0,SE,5.8,-,N/A,,Clear,140,2013-02-06 02:52:00
9:52 PM,39.0,23.0,53,30.01,10.0,SSE,10.4,-,N/A,,Clear,150,2013-02-06 03:52:00
10:52 PM,39.9,21.9,49,30.00,10.0,SSE,10.4,-,N/A,,Clear,160,2013-02-06 04:52:00
11:52 PM,37.9,21.9,53,29.98,10.0,SSE,10.4,-,N/A,,Clear,160,2013-02-06 05:52:00